Location: Colorado Springs
(38.8340°N, 104.8210°W)
Time: 12:59:40
(UTC-07:00)

Vanguard 2 Rocket - Visible Passes

Search period start: 15 December 2017 00:00
Search period end: 25 December 2017 00:00
Orbit: 556 x 3326 km, 32.9° (Epoch: 15 December)

Date Brightness Start Highest point End Pass type
(mag) Time Alt. Az. Time Alt. Az. Time Alt. Az.
15 Dec 10.7 02:06:47 12° SSE 02:06:47 12° SSE 02:07:49 10° SSE visible
15 Dec 9.2 17:51:36 10° SW 18:01:05 45° SSE 18:12:22 19° E visible
15 Dec 9.1 20:03:36 10° WSW 20:16:33 70° S 20:18:10 67° SE visible
15 Dec 10.1 22:17:51 10° W 22:23:58 32° W 22:23:58 32° W visible
16 Dec 9.3 16:53:35 10° SSW 17:01:22 33° SE 17:13:40 10° E visible
16 Dec 9.0 19:04:23 10° WSW 19:15:31 64° SSE 19:21:56 43° ESE visible
16 Dec 9.5 21:17:47 10° W 21:27:44 55° WSW 21:27:44 55° WSW visible
16 Dec 10.8 23:33:04 10° W 23:33:32 11° W 23:33:32 11° W visible
17 Dec 8.9 18:05:35 10° SW 18:15:03 55° SSE 18:25:42 23° E visible
17 Dec 9.0 20:18:05 10° W 20:30:57 71° S 20:31:30 71° SSE visible
17 Dec 10.3 22:32:27 10° W 22:37:18 26° W 22:37:18 26° W visible
18 Dec 9.0 17:07:12 10° SW 17:15:08 43° SSE 17:28:29 10° E visible
18 Dec 8.9 19:18:47 10° WSW 19:29:51 68° S 19:35:17 48° ESE visible
18 Dec 9.6 21:32:21 10° W 21:41:05 47° WSW 21:41:05 47° WSW visible
19 Dec 8.8 18:19:50 10° WSW 18:29:14 62° SSE 18:39:04 26° E visible
19 Dec 9.1 20:32:38 10° W 20:44:52 68° SSW 20:44:52 68° SSW visible
19 Dec 10.4 22:47:10 10° W 22:50:41 21° W 22:50:41 21° W visible
20 Dec 8.7 17:21:14 10° SW 17:29:10 52° SSE 17:42:53 10° E visible
20 Dec 8.9 19:33:17 10° W 19:44:16 69° S 19:48:42 53° ESE visible
20 Dec 9.8 21:46:59 10° W 21:54:30 40° WSW 21:54:30 40° WSW visible
21 Dec 8.7 18:34:15 10° WSW 18:43:36 66° S 18:52:33 30° ESE visible
21 Dec 9.2 20:47:15 10° W 20:58:21 61° SSW 20:58:21 61° SSW visible
21 Dec 10.6 23:02:07 10° W 23:04:10 16° W 23:04:10 16° W visible
22 Dec 8.6 17:35:31 10° WSW 17:43:25 60° SSE 17:56:26 13° E visible
22 Dec 8.9 19:47:52 10° W 19:58:42 66° S 20:02:15 55° SE visible
22 Dec 10.0 22:01:45 10° W 22:08:04 32° WSW 22:08:04 32° WSW visible
23 Dec 8.7 18:48:47 10° W 18:58:03 67° S 19:06:12 32° ESE visible
23 Dec 9.3 21:01:55 10° W 21:12:00 51° SW 21:12:00 51° SW visible
23 Dec 10.7 23:17:31 10° W 23:17:50 11° W 23:17:50 11° W visible
24 Dec 8.5 17:49:58 10° WSW 17:57:49 64° S 18:10:12 14° E visible
24 Dec 9.0 20:02:29 10° W 20:13:09 59° SSW 20:16:01 53° SSE visible
24 Dec 10.2 22:16:47 10° W 22:21:51 25° WSW 22:21:51 25° WSW visible
